Talkeetna, AK

2:34 PM AKST on February 24, 2017 (GMT -0900)
Talkeetna

Weather History for PATK - April, 2014

Change the Weather History Date:

Thursday, April 17, 2014

  Actual Average Record
Temperature  
Mean Temperature 37 °F -  
Max Temperature 51 °F 45 °F 59 °F (1965)
Min Temperature 23 °F 25 °F -10 °F (1963)
Degree Days  
Heating Degree Days 28    
Moisture  
Dew Point 23 °F    
Average Humidity 55    
Maximum Humidity 88    
Minimum Humidity 22    
Precipitation  
Precipitation 0.00 in - - ()
Sea Level Pressure  
Sea Level Pressure 29.42 in    
Wind  
Wind Speed 2 mph (SW)    
Max Wind Speed 5 mph    
Max Gust Speed -    
Visibility 10 miles    
Events      
Averages and records for this station are not official NWS values.
T = Trace of Precipitation, MM = Missing Value Source: NWS Daily Summary

Daily Weather History Graph

Daily Weather History Graph

Search for Another Location

Airport or City:

Trip Planner

Search our weather history database for the weather conditions in past years. The results will help you decide how hot, cold, wet, or windy it might be!

Date:

Astronomy

Apr. 17, 2014 Rise Set
Actual Time 6:28 AM AKDT 9:32 PM AKDT
Civil Twilight 5:36 AM AKDT 10:25 PM AKDT
Nautical Twilight 4:23 AM AKDT 11:40 PM AKDT
Astronomical Twilight 2:32 AM AKDT 1:27 AM AKDT
Moon No Moon Rise 7:32 AM AKDT (4/17)
Length of Visible Light 16h 48m
Length of Day
15h 04m
Waning Gibbous, 93% of the Moon is Illuminated
Apr 17
Waning Gibbous
Apr 21
Last Quarter
Apr 28
New
May 6
First Quarter
May 14
Full

Hourly Weather History & Observations

Time (AKDT) Temp. Windchill Dew Point Humidity Pressure Visibility Wind Dir Wind Speed Gust Speed Precip Events Conditions
12:53 AM 30.9 °F - 24.1 °F 76% 29.57 in 10.0 mi Calm Calm - N/A   Clear
1:53 AM 28.9 °F - 24.1 °F 82% 29.56 in 10.0 mi Calm Calm - N/A   Clear
2:53 AM 28.0 °F 24.2 °F 24.1 °F 85% 29.55 in 10.0 mi NE 3.5 mph - N/A   Clear
3:53 AM 28.0 °F - 24.1 °F 85% 29.54 in 10.0 mi Calm Calm - N/A   Clear
4:53 AM 26.1 °F - 21.9 °F 84% 29.53 in 10.0 mi Calm Calm - N/A   Clear
5:53 AM 24.1 °F 19.7 °F 21.0 °F 88% 29.51 in 10.0 mi NE 3.5 mph - N/A   Clear
6:53 AM 24.1 °F - 21.0 °F 88% 29.49 in 10.0 mi Calm Calm - N/A   Clear
7:53 AM 26.1 °F - 21.9 °F 84% 29.48 in 10.0 mi Calm Calm - N/A   Clear
9:53 AM 39.9 °F 37.8 °F 23.0 °F 51% 29.44 in 10.0 mi North 3.5 mph - N/A   Clear
10:53 AM 43.0 °F 41.3 °F 21.9 °F 43% 29.42 in 10.0 mi Variable 3.5 mph - N/A   Clear
11:53 AM 45.0 °F - 23.0 °F 42% 29.39 in 10.0 mi Calm Calm - N/A   Clear
12:53 PM 46.9 °F - 23.0 °F 39% 29.38 in 10.0 mi WNW 4.6 mph - N/A   Partly Cloudy
1:53 PM 50.0 °F - 23.0 °F 35% 29.37 in 10.0 mi WSW 3.5 mph - N/A   Clear
2:53 PM 48.9 °F - 23.0 °F 36% 29.36 in 10.0 mi SW 4.6 mph - N/A   Mostly Cloudy
3:53 PM 50.0 °F - 23.0 °F 35% 29.35 in 10.0 mi SW 4.6 mph - N/A   Mostly Cloudy
4:53 PM 48.9 °F - 23.0 °F 36% 29.34 in 10.0 mi SSW 4.6 mph - N/A   Mostly Cloudy
5:53 PM 51.1 °F - 21.9 °F 32% 29.33 in 10.0 mi SW 3.5 mph - N/A   Mostly Cloudy
6:53 PM 50.0 °F - 21.0 °F 32% 29.32 in 10.0 mi SSW 4.6 mph - N/A   Overcast
7:53 PM 48.0 °F - 21.9 °F 36% 29.32 in 10.0 mi South 3.5 mph - N/A   Partly Cloudy
8:53 PM 45.0 °F - 24.1 °F 44% 29.33 in 10.0 mi Calm Calm - N/A   Partly Cloudy
9:53 PM 41.0 °F - 26.1 °F 55% 29.34 in 10.0 mi Calm Calm - N/A   Overcast
10:53 PM 39.9 °F - 27.0 °F 60% 29.35 in 10.0 mi Calm Calm - N/A   Overcast
11:53 PM 37.0 °F - 27.0 °F 67% 29.36 in 10.0 mi Calm Calm - N/A   Overcast